Location: La Chapelle
(48.3135°N, 1.3085°W)
Time: 00:25:28
(UTC+00:00)

Cosmos 1378 - Pass Details

Date: 03 March 2021
Orbit: 489 x 501 km, 82.5° (Epoch: 14 April)

Event Time Altitude Azimuth Distance (km) Brightness Sun altitude
Rises 19:59:16 0° 352° (N) 2,604 7.1 -21.7°
Reaches altitude 10° 20:01:24 10° 354° (N) 1,713 6.1 -22.0°
Enters shadow 20:04:03 43° 8° (N) 714 3.9 -22.5°
